User: anonymous   Login
Location: Joplin
(37.0842°N, 94.5131°W)
Time: 09:33:17
(UTC-06:00)
Language:

STARLINK-3073 - Orbit

View from above orbital plane
View from above orbital plane
View from above satellite
View from above satellite

Ground track
Ground track

The orbit data is extracted from the following two-line orbital elements,

1 49135U 21082F   21330.91667824 -.00008251  00000-0 -67389-4 0  9992
2 49135  69.9980 279.4665 0003877 280.4160  69.2688 15.69752980  3688
Epoch (UTC): 26 November 2021 22:00:01
Eccentricity: 0.0003877
inclination: 69.9980°
perigee height: 357 km
apogee height: 362 km
right ascension of ascending node: 279.4665°
argument of perigee: 280.4160°
revolutions per day: 15.69752980
mean anomaly at epoch: 69.2688°
orbit number at epoch: 368

The dashed part of the orbit path shows where the satellite is in the earth's shadow,  

DLR